User: anonymous   Login
Location: Aragüita
(10.0436°N, 67.8028°W)
Time: 05:04:34
(UTC+00:00)
Language:

Cosmos 1939 Rocket - Orbit

View from above orbital plane
View from above orbital plane
View from above satellite
View from above satellite

Ground track
Ground track

The orbit data is extracted from the following two-line orbital elements,

1 19046U 88032B   24164.94951565  .00004923  00000-0  30356-3 0  9990
2 19046  97.4490 146.8422 0029958 273.4234  86.3568 15.10026915955971
Epoch (UTC): 12 June 2024 22:47:18
Eccentricity: 0.0029958
inclination: 97.4490°
perigee height: 515 km
apogee height: 557 km
right ascension of ascending node: 146.8422°
argument of perigee: 273.4234°
revolutions per day: 15.10026915
mean anomaly at epoch: 86.3568°
orbit number at epoch: 95597

The dashed part of the orbit path shows where the satellite is in the earth's shadow,  

DLR